{"data":{"norad_id":67507,"intl_designator":"2026-012Q","name":"STARLINK-36521","alt_names":[],"object_type":"PAYLOAD","status":"ACTIVE","operator":null,"country":"US","launch_date":"2026-01-18","launch_site_code":"AFETR","launch_vehicle":null,"mission":null,"orbit_class":"UNKNOWN","rcs_meters":null,"size_class":null,"mass_kg":null,"dimensions":null,"purposes":["comms"],"wikipedia_slug":null,"has_3d_model":false,"image_url":null,"decayed_at":null,"tle_current":{"epoch":"2026-09-19T09:52:47.234784Z","epoch_age_seconds":166292,"freshness":"FRESH","line1":"1 67507U 26012Q   26262.41165781  .00007765  00000+0  29132-3 0  9991","line2":"2 67507  42.9990 299.9619 0000940 273.5384  86.5360 15.27587598 37397","mean_motion":15.27587598,"eccentricity":9.4e-5,"inclination_deg":42.999,"raan_deg":299.9619,"arg_perigee_deg":273.5384,"mean_anomaly_deg":86.536,"bstar":0.00029132,"rev_number":3739,"period_min":94.266279844464,"perigee_km":482.38139563416,"apogee_km":483.67129434302,"semimajor_km":6861.1633449886,"source":"CELESTRAK","updated_at":"2026-09-20T09:00:43.560248Z"}}}